THOR ABLESTAR DEB, 5748

Orbit data source: Space-Track

THOR ABLESTAR DEB, 5748 is space debris in LEO originally from a launch on Thu, 29 Jun 1961 UTC launched from the Air Force Eastern Test Range (AFETR). Debris objects in space refer to the collection of defunct objects orbiting the Earth. Examples of debris include non-operational satellites, rocket bodies, and fragments generated from explosions, collisions, or faulty payload assembly.

Loading next visibility...
Identifier
5748, 1961-015JX
Orbit
LEO
Country
Flag of USUS
Related business
Manufacturer
Unknown
Mission
Spacecraft
Bus & Motor
Unknown
Mass
Unknown
Launch date (UTC)
1961-06-29 (65 years ago)
Launch vehicle
Unknown
Launch site
Air Force Eastern Test Range (AFETR)
Object type
Payload
Rocket body
Debris
Shape & HBR
Unknown shape, 0.1 m
Radar Cross Section
Small (<0.1 m²)

Expand to show TLE details & history
Last TLE update: 9 hours ago

TLE from 9 hours ago
0 THOR ABLESTAR DEB
1 05748U 61015JX  26237.56632179  .00000382  00000-0  50311-3 0  9992
2 05748  67.5557 283.6497 0112427 352.6915 157.2641 13.68317987164143
Epoch: 2026-08-25T13:35Z
TLE epoch observation values (Epoch: 2026-08-25T13:35:30.202Z)
Latitude
27.17114°
Longitude
-86.23562°
Altitude
1,084.853 km
Speed
7.274 km/s
True Right ascension
06h 05m 53s
True Declination
27° 02' 16"
Sunlit
Object was in daylight at epoch
Visualization orbit readout
Latitude
Unknown
Longitude
Unknown
Altitude
Unknown
Speed
Unknown
Apparent Right ascension
Unknown
Apparent Declination
Unknown
Sunlit
N/A
Visualization observer readout
Local Sidereal Time
13:48:31
Azimuth
Unknown
Elevation
Unknown
Doppler factor
Unknown
Orbital elements
Apogee altitude
1,086.937 km
Perigee altitude
920.948 km
Semi-major axis
7,382.079 km
Eccentricity
0.01124
Inclination
67.5557°
RAAN
283.6497°
Arg. of periapsis
352.6915°
True anomaly
157.75563°
Mean anomaly
157.2641°
Eccentric anomaly
157.5105°
Mean motion
3.42196 °/min
Orbital period
105.2 mins
BSTAR
0.00050311
Loading maneuver chart data...
Computing Atmospheric mass density...

Documentation

Showing up to 5 results
|